EA5DHO-13 Weather Reports


time (UTC)temp
C
wind
direction
speed
KPH
gust
KPH
rain 1hr
cm
rain 24hr
cm
rain mn
cm
humidity
%
barometer
mb
20260504050438 17 45 1.6 3.2 0.00 0.03 0.00 86 1014.6
20260504045433 17 0.0 3.2 0.00 0.03 0.00 86 1014.6
20260504044430 17 45 0.0 3.2 0.00 0.03 0.00 86 1014.6
20260504043427 17 0.0 3.2 0.00 0.03 0.00 86 1014.6
20260504042425 17 45 0.0 3.2 0.00 0.03 0.00 86 1014.6
20260504041420 17 45 1.6 3.2 0.00 0.03 0.00 86 1014.8
20260504040418 17 0.0 0.0 0.00 0.03 0.00 85 1014.8
20260504035614 17 0.0 3.2 0.00 0.03 0.00 85 1014.9
20260504034531 17 0.0 3.2 0.00 0.03 0.00 85 1015.0
20260504033509 17 0.0 3.2 0.00 0.03 0.00 85 1015.1
20260504032526 17 0.0 3.2 0.00 0.03 0.00 86 1015.2
20260504031501 17 0.0 0.0 0.00 0.03 0.00 86 1015.3
20260504030458 17 0.0 0.0 0.00 0.03 0.00 86 1015.4
20260504025455 17 0.0 0.0 0.00 0.03 0.00 87 1015.5
20260504024513 17 0.0 0.0 0.00 0.03 0.00 87 1015.5
20260504023450 17 0.0 3.2 0.00 0.03 0.00 87 1015.5
20260504022445 17 0.0 0.0 0.00 0.03 0.00 87 1015.5
20260504021442 17 0.0 0.0 0.00 0.03 0.00 87 1015.5
20260504020439 17 0.0 0.0 0.00 0.03 0.00 87 1015.4
20260504015435 17 45 3.2 6.4 0.00 0.03 0.00 86 1015.3
20260504014432 17 45 3.2 6.4 0.00 0.03 0.00 86 1015.3
20260504013449 17 45 1.6 3.2 0.00 0.03 0.00 85 1015.3
20260504012426 17 0.0 0.0 0.00 0.03 0.00 84 1015.5
20260504011423 17 45 1.6 3.2 0.00 0.03 0.00 84 1015.5
20260504010419 17 45 0.0 3.2 0.00 0.03 0.00 84 1015.5
20260504005416 17 45 1.6 3.2 0.00 0.03 0.00 83 1015.4
20260504004513 17 68 0.0 3.2 0.00 0.03 0.00 83 1015.5
20260504003510 17 68 1.6 3.2 0.00 0.03 0.00 82 1015.6
20260504002507 17 0.0 0.0 0.00 0.03 0.00 82 1015.6
20260504001503 17 0.0 0.0 0.00 0.03 0.00 82 1015.8
20260504000500 17 0.0 0.0 0.00 0.03 0.00 82 1016.0
20260503235457 17 68 0.0 3.2 0.00 0.03 0.00 82 1016.0
20260503234454 17 68 0.0 3.2 0.00 0.03 0.00 82 1016.1
20260503233451 17 90 3.2 6.4 0.00 0.03 0.00 82 1016.1
20260503232508 17 0.0 3.2 0.00 0.03 0.00 82 1016.1
20260503231504 17 0.0 0.0 0.00 0.03 0.00 82 1016.2
20260503230441 17 0.0 0.0 0.00 0.03 0.00 80 1016.2
20260503225438 17 68 3.2 6.4 0.00 0.03 0.00 79 1016.1
20260503224435 17 68 3.2 6.4 0.00 0.03 0.00 82 1016.1
20260503223431 17 90 1.6 3.2 0.00 0.03 0.00 84 1016.1
20260503222428 17 0.0 0.0 0.00 0.03 0.00 85 1016.1
20260503221425 17 90 0.0 3.2 0.00 0.03 0.00 85 1016.1
20260503220423 17 158 3.2 6.4 0.00 0.03 0.00 85 1016.2
20260503215420 17 90 3.2 6.4 0.00 0.03 0.03 85 1016.2
20260503214416 17 81 4.8 6.4 0.00 0.03 0.03 84 1016.3
20260503213513 17 98 6.4 11.3 0.00 0.03 0.03 84 1016.4
20260503212509 18 111 3.2 6.4 0.00 0.03 0.03 84 1016.5
20260503211509 18 126 4.8 6.4 0.00 0.03 0.03 84 1016.5
20260503210502 17 86 1.6 6.4 0.00 0.03 0.03 85 1016.6
20260503205501 17 97 6.4 9.7 0.00 0.03 0.03 85 1016.4
20260503204518 17 90 3.2 3.2 0.00 0.03 0.03 85 1016.2
20260503203453 18 68 4.8 6.4 0.00 0.03 0.03 85 1016.2
20260503202450 17 75 6.4 6.4 0.00 0.03 0.03 85 1015.9
20260503201447 17 80 8.0 11.3 0.00 0.03 0.03 85 1015.8
20260503200443 17 68 8.0 9.7 0.00 0.03 0.03 85 1015.7
20260503195440 18 68 1.6 3.2 0.00 0.03 0.03 85 1015.6
20260503194457 18 68 4.8 6.4 0.00 0.03 0.03 86 1015.7
20260503193435 17 45 3.2 6.4 0.00 0.03 0.03 85 1015.4
20260503192430 18 74 6.4 11.3 0.00 0.03 0.03 84 1015.4
20260503191447 17 52 4.8 6.4 0.00 0.03 0.03 85 1015.4
20260503190424 17 105 6.4 9.7 0.00 0.03 0.03 85 1015.5
20260503185421 18 74 14.5 17.7 0.00 0.03 0.03 85 1015.3
20260503184418 17 90 12.9 17.7 0.00 0.03 0.03 85 1015.3
20260503183514 18 60 4.8 9.7 0.00 0.03 0.03 84 1015.3
20260503182511 18 61 6.4 11.3 0.00 0.03 0.03 84 1015.1
20260503181508 18 68 14.5 20.9 0.00 0.03 0.03 84 1015.3
20260503180505 18 83 6.4 9.7 0.00 0.03 0.03 83 1014.9
20260503175523 18 68 11.3 17.7 0.00 0.03 0.03 83 1014.8
20260503174539 18 62 11.3 17.7 0.00 0.03 0.03 82 1015.0
20260503173455 18 68 9.7 17.7 0.00 0.03 0.03 81 1015.0
20260503172452 18 90 12.9 17.7 0.00 0.03 0.03 81 1015.0
20260503171448 18 47 11.3 20.9 0.00 0.03 0.03 80 1015.1
20260503170507 18 91 9.7 14.5 0.00 0.03 0.03 80 1015.1
20260503150506 18 100 12.9 22.5 0.00 0.03 0.03 76 1015.1
20260503130428 20 129 4.8 11.3 0.00 0.03 0.03 72 1016.1
20260503110449 18 68 14.5 17.7 0.00 0.03 0.03 77 1017.1
20260503090510 18 106 8.0 14.5 0.00 0.03 0.03 83 1017.8
20260503081454 17 126 8.0 14.5 0.00 0.03 0.03 85 1017.7
20260503080451 17 152 3.2 6.4 0.00 0.03 0.03 85 1017.8
20260503072439 17 122 4.8 9.7 0.00 0.03 0.03 87 1017.6
20260503071436 17 96 9.7 17.7 0.00 0.03 0.03 86 1017.5
20260503070452 17 133 4.8 6.4 0.00 0.03 0.03 86 1017.5
20260503054506 17 23 1.6 3.2 0.03 0.03 0.03 91 1017.4
20260503053502 17 45 0.0 3.2 0.03 0.03 0.03 90 1017.2
20260503052459 17 45 1.6 3.2 0.00 0.00 0.00 90 1017.3